"Period start","avg(HW err(1)/warn(2) (#))","avg(Visibility (m))","avg(Weather code (#))","avg(Precip intensity (mm/h))","min(HW err(1)/warn(2) (#))","max(HW err(1)/warn(2) (#))","std(HW err(1)/warn(2) (#))","med(HW err(1)/warn(2) (#))","min(Visibility (m))","max(Visibility (m))","std(Visibility (m))","med(Visibility (m))","min(Weather code (#))","max(Weather code (#))","std(Weather code (#))","med(Weather code (#))","min(Precip intensity (mm/h))","max(Precip intensity (mm/h))","std(Precip intensity (mm/h))","med(Precip intensity (mm/h))"
2017-10-01 00:00:00,2,25327,4,0.00,2,2,0,2,12950,38916,10621,25307,0,10,5,0,0.00,0.00,0.00,0.00
2017-10-01 00:10:00,2,35231,0,0.00,2,2,0,2,14175,50000,13045,36907,0,0,0,0,0.00,0.00,0.00,0.00
2017-10-01 00:20:00,2,35349,0,0.00,2,2,0,2,11532,50000,16218,44440,0,0,0,0,0.00,0.00,0.00,0.00
2017-10-01 00:30:00,2,49545,0,0.00,2,2,0,2,46876,50000,986,50000,0,0,0,0,0.00,0.00,0.00,0.00
2017-10-01 00:40:00,2,27884,0,0.00,2,2,0,2,9096,45479,12633,27540,0,0,0,0,0.00,0.00,0.00,0.00
2017-10-01 00:50:00,2,45496,0,0.00,2,2,0,2,33339,50000,5795,49026,0,0,0,0,0.00,0.00,0.00,0.00
2017-10-01 01:00:00,2,37951,0,0.00,2,2,0,2,11803,50000,13863,44662,0,0,0,0,0.00,0.00,0.00,0.00
2017-10-01 01:10:00,2,38630,0,0.00,2,2,0,2,20982,50000,11753,43050,0,0,0,0,0.00,0.00,0.00,0.00
2017-10-01 01:20:00,2,49719,0,0.00,2,2,0,2,47191,50000,843,50000,0,0,0,0,0.00,0.00,0.00,0.00
2017-10-01 01:30:00,2,45573,0,0.00,2,2,0,2,26973,50000,8553,50000,0,0,0,0,0.00,0.00,0.00,0.00
2017-10-01 01:40:00,2,38759,0,0.00,2,2,0,2,16753,50000,11418,42341,0,0,0,0,0.00,0.00,0.00,0.00
2017-10-01 01:50:00,2,41070,0,0.00,2,2,0,2,23556,50000,9699,45409,0,0,0,0,0.00,0.00,0.00,0.00
2017-10-01 02:00:00,2,40065,0,0.00,2,2,0,2,26245,45477,5996,42645,0,0,0,0,0.00,0.00,0.00,0.00
2017-10-01 02:10:00,2,35866,0,0.00,2,2,0,2,21854,46233,7458,35982,0,0,0,0,0.00,0.00,0.00,0.00
2017-10-01 02:20:00,2,35454,0,0.00,2,2,0,2,22275,41943,6340,37850,0,0,0,0,0.00,0.00,0.00,0.00
2017-10-01 02:30:00,2,43965,0,0.00,2,2,0,2,19377,50000,9286,49258,0,0,0,0,0.00,0.00,0.00,0.00
2017-10-01 02:40:00,2,49458,0,0.00,2,2,0,2,48158,50000,689,50000,0,0,0,0,0.00,0.00,0.00,0.00
2017-10-01 02:50:00,2,50000,0,0.00,2,2,0,2,50000,50000,0,50000,0,0,0,0,0.00,0.00,0.00,0.00
2017-10-01 03:00:00,2,50000,0,0.00,2,2,0,2,50000,50000,0,50000,0,0,0,0,0.00,0.00,0.00,0.00
2017-10-01 03:10:00,2,50000,0,0.00,2,2,0,2,50000,50000,0,50000,0,0,0,0,0.00,0.00,0.00,0.00
2017-10-01 03:20:00,2,49544,0,0.00,2,2,0,2,48053,50000,719,50000,0,0,0,0,0.00,0.00,0.00,0.00
2017-10-01 03:30:00,2,48161,0,0.00,2,2,0,2,45364,50000,1760,48706,0,0,0,0,0.00,0.00,0.00,0.00
2017-10-01 03:40:00,2,49372,0,0.00,2,2,0,2,45595,50000,1339,50000,0,0,0,0,0.00,0.00,0.00,0.00
2017-10-01 03:50:00,2,48980,0,0.00,2,2,0,2,42499,50000,2264,50000,0,0,0,0,0.00,0.00,0.00,0.00
2017-10-01 04:00:00,2,49787,0,0.00,2,2,0,2,48844,50000,382,50000,0,0,0,0,0.00,0.00,0.00,0.00
2017-10-01 04:10:00,2,47147,0,0.00,2,2,0,2,39741,50000,3443,48014,0,0,0,0,0.00,0.00,0.00,0.00
2017-10-01 04:20:00,2,48701,0,0.00,2,2,0,2,44257,50000,2086,50000,0,0,0,0,0.00,0.00,0.00,0.00
2017-10-01 04:30:00,2,49454,0,0.00,2,2,0,2,46728,50000,1052,50000,0,0,0,0,0.00,0.00,0.00,0.00
2017-10-01 04:40:00,2,49937,0,0.00,2,2,0,2,49371,50000,189,50000,0,0,0,0,0.00,0.00,0.00,0.00
2017-10-01 04:50:00,2,49427,0,0.00,2,2,0,2,45775,50000,1291,50000,0,0,0,0,0.00,0.00,0.00,0.00
2017-10-01 05:00:00,2,49860,0,0.00,2,2,0,2,48597,50000,421,50000,0,0,0,0,0.00,0.00,0.00,0.00
2017-10-01 05:10:00,2,49816,0,0.00,2,2,0,2,48160,50000,552,50000,0,0,0,0,0.00,0.00,0.00,0.00
2017-10-01 05:20:00,2,49758,0,0.00,2,2,0,2,48926,50000,385,50000,0,0,0,0,0.00,0.00,0.00,0.00
2017-10-01 05:30:00,2,49945,0,0.00,2,2,0,2,49448,50000,166,50000,0,0,0,0,0.00,0.00,0.00,0.00
2017-10-01 05:40:00,2,49686,0,0.00,2,2,0,2,46859,50000,942,50000,0,0,0,0,0.00,0.00,0.00,0.00
2017-10-01 05:50:00,2,49877,0,0.00,2,2,0,2,49170,50000,264,50000,0,0,0,0,0.00,0.00,0.00,0.00
2017-10-01 06:00:00,2,50000,0,0.00,2,2,0,2,50000,50000,0,50000,0,0,0,0,0.00,0.00,0.00,0.00
2017-10-01 06:10:00,2,49849,0,0.00,2,2,0,2,48490,50000,453,50000,0,0,0,0,0.00,0.00,0.00,0.00
2017-10-01 06:20:00,2,49896,0,0.00,2,2,0,2,48960,50000,312,50000,0,0,0,0,0.00,0.00,0.00,0.00
2017-10-01 06:30:00,2,50000,0,0.00,2,2,0,2,50000,50000,0,50000,0,0,0,0,0.00,0.00,0.00,0.00
2017-10-01 06:40:00,2,49896,0,0.00,2,2,0,2,48961,50000,312,50000,0,0,0,0,0.00,0.00,0.00,0.00
2017-10-01 06:50:00,2,49962,0,0.00,2,2,0,2,49622,50000,113,50000,0,0,0,0,0.00,0.00,0.00,0.00
2017-10-01 07:00:00,2,49792,0,0.00,2,2,0,2,47924,50000,623,50000,0,0,0,0,0.00,0.00,0.00,0.00
2017-10-01 07:10:00,2,49809,0,0.00,2,2,0,2,48090,50000,573,50000,0,0,0,0,0.00,0.00,0.00,0.00
2017-10-01 07:20:00,2,50000,0,0.00,2,2,0,2,50000,50000,0,50000,0,0,0,0,0.00,0.00,0.00,0.00
2017-10-01 07:30:00,2,49973,0,0.00,2,2,0,2,49732,50000,80,50000,0,0,0,0,0.00,0.00,0.00,0.00
2017-10-01 07:40:00,2,49831,0,0.00,2,2,0,2,48743,50000,385,50000,0,0,0,0,0.00,0.00,0.00,0.00
2017-10-01 07:50:00,2,49914,0,0.00,2,2,0,2,49135,50000,260,50000,0,0,0,0,0.00,0.00,0.00,0.00
2017-10-01 08:00:00,2,50000,0,0.00,2,2,0,2,50000,50000,0,50000,0,0,0,0,0.00,0.00,0.00,0.00
2017-10-01 08:10:00,2,50000,0,0.00,2,2,0,2,50000,50000,0,50000,0,0,0,0,0.00,0.00,0.00,0.00
2017-10-01 08:20:00,2,50000,0,0.00,2,2,0,2,50000,50000,0,50000,0,0,0,0,0.00,0.00,0.00,0.00
2017-10-01 08:30:00,2,50000,0,0.00,2,2,0,2,50000,50000,0,50000,0,0,0,0,0.00,0.00,0.00,0.00
2017-10-01 08:40:00,2,50000,0,0.00,2,2,0,2,50000,50000,0,50000,0,0,0,0,0.00,0.00,0.00,0.00
2017-10-01 08:50:00,2,50000,0,0.00,2,2,0,2,50000,50000,0,50000,0,0,0,0,0.00,0.00,0.00,0.00
2017-10-01 09:00:00,2,49982,0,0.00,2,2,0,2,49819,50000,54,50000,0,0,0,0,0.00,0.00,0.00,0.00
2017-10-01 09:10:00,2,50000,0,0.00,2,2,0,2,50000,50000,0,50000,0,0,0,0,0.00,0.00,0.00,0.00
2017-10-01 09:20:00,2,50000,0,0.00,2,2,0,2,50000,50000,0,50000,0,0,0,0,0.00,0.00,0.00,0.00
2017-10-01 09:30:00,2,50000,0,0.00,2,2,0,2,50000,50000,0,50000,0,0,0,0,0.00,0.00,0.00,0.00
2017-10-01 09:40:00,2,50000,0,0.00,2,2,0,2,50000,50000,0,50000,0,0,0,0,0.00,0.00,0.00,0.00
2017-10-01 09:50:00,2,50000,0,0.00,2,2,0,2,50000,50000,0,50000,0,0,0,0,0.00,0.00,0.00,0.00
2017-10-01 10:00:00,2,50000,0,0.00,2,2,0,2,50000,50000,0,50000,0,0,0,0,0.00,0.00,0.00,0.00
2017-10-01 10:10:00,2,50000,0,0.00,2,2,0,2,50000,50000,0,50000,0,0,0,0,0.00,0.00,0.00,0.00
2017-10-01 10:20:00,2,50000,0,0.00,2,2,0,2,50000,50000,0,50000,0,0,0,0,0.00,0.00,0.00,0.00
2017-10-01 10:30:00,2,50000,0,0.00,2,2,0,2,50000,50000,0,50000,0,0,0,0,0.00,0.00,0.00,0.00
2017-10-01 10:40:00,2,50000,0,0.00,2,2,0,2,50000,50000,0,50000,0,0,0,0,0.00,0.00,0.00,0.00
2017-10-01 10:50:00,2,49982,0,0.00,2,2,0,2,49820,50000,54,50000,0,0,0,0,0.00,0.00,0.00,0.00
2017-10-01 11:00:00,2,50000,0,0.00,2,2,0,2,50000,50000,0,50000,0,0,0,0,0.00,0.00,0.00,0.00
2017-10-01 11:10:00,2,50000,0,0.00,2,2,0,2,50000,50000,0,50000,0,0,0,0,0.00,0.00,0.00,0.00
2017-10-01 11:20:00,2,50000,0,0.00,2,2,0,2,50000,50000,0,50000,0,0,0,0,0.00,0.00,0.00,0.00
2017-10-01 11:30:00,2,50000,0,0.00,2,2,0,2,50000,50000,0,50000,0,0,0,0,0.00,0.00,0.00,0.00
2017-10-01 11:40:00,2,29532,0,0.00,2,2,0,2,4207,50000,20067,34224,0,0,0,0,0.00,0.00,0.00,0.00
2017-10-01 11:50:00,2,27703,0,0.00,2,2,0,2,10134,50000,15854,20392,0,0,0,0,0.00,0.00,0.00,0.00
2017-10-01 12:00:00,2,40236,0,0.00,2,2,0,2,10330,50000,15168,50000,0,0,0,0,0.00,0.00,0.00,0.00
2017-10-01 12:10:00,2,37195,0,0.00,2,2,0,2,6771,50000,15883,47338,0,0,0,0,0.00,0.00,0.00,0.00
2017-10-01 12:20:00,2,37709,0,0.00,2,2,0,2,7300,50000,18823,50000,0,0,0,0,0.00,0.00,0.00,0.00
2017-10-01 12:30:00,2,29829,0,0.00,2,2,0,2,9175,50000,15784,26428,0,0,0,0,0.00,0.00,0.00,0.00
2017-10-01 12:40:00,2,50000,0,0.00,2,2,0,2,50000,50000,0,50000,0,0,0,0,0.00,0.00,0.00,0.00
2017-10-01 12:50:00,2,50000,0,0.00,2,2,0,2,50000,50000,0,50000,0,0,0,0,0.00,0.00,0.00,0.00
2017-10-01 13:00:00,2,50000,0,0.00,2,2,0,2,50000,50000,0,50000,0,0,0,0,0.00,0.00,0.00,0.00
2017-10-01 13:10:00,2,50000,0,0.00,2,2,0,2,50000,50000,0,50000,0,0,0,0,0.00,0.00,0.00,0.00
2017-10-01 13:20:00,2,50000,0,0.00,2,2,0,2,50000,50000,0,50000,0,0,0,0,0.00,0.00,0.00,0.00
2017-10-01 13:30:00,2,50000,0,0.00,2,2,0,2,50000,50000,0,50000,0,0,0,0,0.00,0.00,0.00,0.00
2017-10-01 13:40:00,2,49154,0,0.00,2,2,0,2,44339,50000,1689,50000,0,0,0,0,0.00,0.00,0.00,0.00
2017-10-01 13:50:00,2,46607,0,0.00,2,2,0,2,33554,50000,5829,50000,0,0,0,0,0.00,0.00,0.00,0.00
2017-10-01 14:00:00,2,50000,0,0.00,2,2,0,2,50000,50000,0,50000,0,0,0,0,0.00,0.00,0.00,0.00
2017-10-01 14:10:00,2,50000,0,0.00,2,2,0,2,50000,50000,0,50000,0,0,0,0,0.00,0.00,0.00,0.00
2017-10-01 14:20:00,2,50000,0,0.00,2,2,0,2,50000,50000,0,50000,0,0,0,0,0.00,0.00,0.00,0.00
2017-10-01 14:30:00,2,50000,0,0.00,2,2,0,2,50000,50000,0,50000,0,0,0,0,0.00,0.00,0.00,0.00
2017-10-01 14:40:00,2,50000,0,0.00,2,2,0,2,50000,50000,0,50000,0,0,0,0,0.00,0.00,0.00,0.00
2017-10-01 14:50:00,2,49234,0,0.00,2,2,0,2,43504,50000,1925,50000,0,0,0,0,0.00,0.00,0.00,0.00
2017-10-01 15:00:00,2,50000,0,0.00,2,2,0,2,50000,50000,0,50000,0,0,0,0,0.00,0.00,0.00,0.00
2017-10-01 15:10:00,2,21846,0,0.00,2,2,0,2,11867,36345,8000,20006,0,0,0,0,0.00,0.00,0.00,0.00
2017-10-01 15:20:00,2,17500,0,0.00,2,2,0,2,8321,32610,6847,16888,0,0,0,0,0.00,0.00,0.00,0.00
2017-10-01 15:30:00,2,20449,0,0.00,2,2,0,2,6256,42666,10721,18122,0,0,0,0,0.00,0.00,0.00,0.00
2017-10-01 15:40:00,2,37610,0,0.00,2,2,0,2,20230,50000,10290,39313,0,0,0,0,0.00,0.00,0.00,0.00
2017-10-01 15:50:00,2,50000,0,0.00,2,2,0,2,50000,50000,0,50000,0,0,0,0,0.00,0.00,0.00,0.00
2017-10-01 16:00:00,2,33172,0,0.00,2,2,0,2,10809,50000,15141,34284,0,0,0,0,0.00,0.00,0.00,0.00
2017-10-01 16:10:00,2,50000,0,0.00,2,2,0,2,50000,50000,0,50000,0,0,0,0,0.00,0.00,0.00,0.00
2017-10-01 16:20:00,2,50000,0,0.00,2,2,0,2,50000,50000,0,50000,0,0,0,0,0.00,0.00,0.00,0.00
2017-10-01 16:30:00,2,50000,0,0.00,2,2,0,2,50000,50000,0,50000,0,0,0,0,0.00,0.00,0.00,0.00
2017-10-01 16:40:00,2,50000,0,0.00,2,2,0,2,50000,50000,0,50000,0,0,0,0,0.00,0.00,0.00,0.00
2017-10-01 16:50:00,2,50000,0,0.00,2,2,0,2,50000,50000,0,50000,0,0,0,0,0.00,0.00,0.00,0.00
2017-10-01 17:00:00,2,50000,0,0.00,2,2,0,2,50000,50000,0,50000,0,0,0,0,0.00,0.00,0.00,0.00
2017-10-01 17:10:00,2,50000,0,0.00,2,2,0,2,50000,50000,0,50000,0,0,0,0,0.00,0.00,0.00,0.00
2017-10-01 17:20:00,2,50000,0,0.00,2,2,0,2,50000,50000,0,50000,0,0,0,0,0.00,0.00,0.00,0.00
2017-10-01 17:30:00,2,50000,0,0.00,2,2,0,2,50000,50000,0,50000,0,0,0,0,0.00,0.00,0.00,0.00
2017-10-01 17:40:00,2,50000,0,0.00,2,2,0,2,50000,50000,0,50000,0,0,0,0,0.00,0.00,0.00,0.00
2017-10-01 17:50:00,2,50000,0,0.00,2,2,0,2,50000,50000,0,50000,0,0,0,0,0.00,0.00,0.00,0.00
2017-10-01 18:00:00,2,50000,0,0.00,2,2,0,2,50000,50000,0,50000,0,0,0,0,0.00,0.00,0.00,0.00
2017-10-01 18:10:00,2,50000,0,0.00,2,2,0,2,50000,50000,0,50000,0,0,0,0,0.00,0.00,0.00,0.00
2017-10-01 18:20:00,2,50000,0,0.00,2,2,0,2,50000,50000,0,50000,0,0,0,0,0.00,0.00,0.00,0.00
2017-10-01 18:30:00,2,50000,0,0.00,2,2,0,2,50000,50000,0,50000,0,0,0,0,0.00,0.00,0.00,0.00
2017-10-01 18:40:00,2,50000,0,0.00,2,2,0,2,50000,50000,0,50000,0,0,0,0,0.00,0.00,0.00,0.00
2017-10-01 18:50:00,2,50000,0,0.00,2,2,0,2,50000,50000,0,50000,0,0,0,0,0.00,0.00,0.00,0.00
2017-10-01 19:00:00,2,50000,0,0.00,2,2,0,2,50000,50000,0,50000,0,0,0,0,0.00,0.00,0.00,0.00
2017-10-01 19:10:00,2,50000,0,0.00,2,2,0,2,50000,50000,0,50000,0,0,0,0,0.00,0.00,0.00,0.00
2017-10-01 19:20:00,2,50000,0,0.00,2,2,0,2,50000,50000,0,50000,0,0,0,0,0.00,0.00,0.00,0.00
2017-10-01 19:30:00,2,50000,0,0.00,2,2,0,2,50000,50000,0,50000,0,0,0,0,0.00,0.00,0.00,0.00
2017-10-01 19:40:00,2,50000,0,0.00,2,2,0,2,50000,50000,0,50000,0,0,0,0,0.00,0.00,0.00,0.00
2017-10-01 19:50:00,2,50000,0,0.00,2,2,0,2,50000,50000,0,50000,0,0,0,0,0.00,0.00,0.00,0.00
2017-10-01 20:00:00,2,50000,0,0.00,2,2,0,2,50000,50000,0,50000,0,0,0,0,0.00,0.00,0.00,0.00
2017-10-01 20:10:00,2,50000,0,0.00,2,2,0,2,50000,50000,0,50000,0,0,0,0,0.00,0.00,0.00,0.00
2017-10-01 20:20:00,2,50000,0,0.00,2,2,0,2,50000,50000,0,50000,0,0,0,0,0.00,0.00,0.00,0.00
2017-10-01 20:30:00,2,50000,0,0.00,2,2,0,2,50000,50000,0,50000,0,0,0,0,0.00,0.00,0.00,0.00
2017-10-01 20:40:00,2,50000,0,0.00,2,2,0,2,50000,50000,0,50000,0,0,0,0,0.00,0.00,0.00,0.00
2017-10-01 20:50:00,2,50000,0,0.00,2,2,0,2,50000,50000,0,50000,0,0,0,0,0.00,0.00,0.00,0.00
2017-10-01 21:00:00,2,49538,0,0.00,2,2,0,2,46065,50000,1171,50000,0,0,0,0,0.00,0.00,0.00,0.00
2017-10-01 21:10:00,2,40229,0,0.00,2,2,0,2,34137,49276,5758,37468,0,0,0,0,0.00,0.00,0.00,0.00
2017-10-01 21:20:00,2,36091,0,0.00,2,2,0,2,6854,50000,16420,46102,0,0,0,0,0.00,0.00,0.00,0.00
2017-10-01 21:30:00,2,36741,0,0.00,2,2,0,2,7535,50000,17244,49096,0,0,0,0,0.00,0.00,0.00,0.00
2017-10-01 21:40:00,2,49575,0,0.00,2,2,0,2,45748,50000,1276,50000,0,0,0,0,0.00,0.00,0.00,0.00
2017-10-01 21:50:00,2,50000,0,0.00,2,2,0,2,50000,50000,0,50000,0,0,0,0,0.00,0.00,0.00,0.00
2017-10-01 22:00:00,2,49870,0,0.00,2,2,0,2,48704,50000,389,50000,0,0,0,0,0.00,0.00,0.00,0.00
2017-10-01 22:10:00,2,50000,0,0.00,2,2,0,2,50000,50000,0,50000,0,0,0,0,0.00,0.00,0.00,0.00
2017-10-01 22:20:00,2,50000,0,0.00,2,2,0,2,50000,50000,0,50000,0,0,0,0,0.00,0.00,0.00,0.00
2017-10-01 22:30:00,2,50000,0,0.00,2,2,0,2,50000,50000,0,50000,0,0,0,0,0.00,0.00,0.00,0.00
2017-10-01 22:40:00,2,49432,0,0.00,2,2,0,2,47096,50000,1136,50000,0,0,0,0,0.00,0.00,0.00,0.00
2017-10-01 22:50:00,2,49755,0,0.00,2,2,0,2,47553,50000,734,50000,0,0,0,0,0.00,0.00,0.00,0.00
2017-10-01 23:00:00,2,50000,0,0.00,2,2,0,2,50000,50000,0,50000,0,0,0,0,0.00,0.00,0.00,0.00
2017-10-01 23:10:00,2,29081,0,0.00,2,2,0,2,9217,47975,14218,29552,0,0,0,0,0.00,0.00,0.00,0.00
2017-10-01 23:20:00,2,27407,0,0.00,2,2,0,2,14454,37871,8550,27366,0,0,0,0,0.00,0.00,0.00,0.00
2017-10-01 23:30:00,2,29454,0,0.00,2,2,0,2,9183,50000,15937,30036,0,0,0,0,0.00,0.00,0.00,0.00
2017-10-01 23:40:00,2,9160,10,0.02,2,2,0,2,2270,35177,10074,5306,0,40,15,0,0.00,0.10,0.03,0.00
2017-10-01 23:50:00,2,6899,48,0.03,2,2,0,2,1640,18671,4912,6125,0,77,35,77,0.00,0.15,0.06,0.00
